TAP131 LPPT-LPMA

Flight info

Callsign TAP131
Flight time 1h 11m
Altitude 39000
Route ULVOT DCT GALPA DCT RAKUN
Aircraft A333/H-SDE3GHIJ2J3J5M1RVWXY/LB2D1

Departure

Time 2026-05-07 13:23
Airport Lisbon Humberto Delgado Airport (LPPT)

Arrival

Time 2026-05-07 14:34
Airport Cristiano Ronaldo International Airport (LPMA)
Time Latitude Longitude Altitude Speed Heading
2026-05-07 12:54 38.76886 -9.13587 345 ft 0 kts 256°
2026-05-07 13:13 38.76889 -9.13571 345 ft 2 kts 255°
2026-05-07 13:13 38.76893 -9.13553 344 ft 2 kts 255°
2026-05-07 13:13 38.76895 -9.13541 343 ft 2 kts 255°
2026-05-07 13:13 38.76901 -9.13523 343 ft 2 kts 229°
2026-05-07 13:14 38.76912 -9.13509 342 ft 2 kts 209°
2026-05-07 13:14 38.76926 -9.13502 342 ft 2 kts 188°
2026-05-07 13:14 38.76940 -9.13501 342 ft 0 kts 169°
2026-05-07 13:14 38.76945 -9.13503 343 ft 0 kts 168°
2026-05-07 13:17 38.76942 -9.13502 342 ft 1 kts 168°
2026-05-07 13:17 38.76914 -9.13494 342 ft 6 kts 168°
2026-05-07 13:18 38.76807 -9.13464 341 ft 22 kts 168°
2026-05-07 13:18 38.76664 -9.13458 345 ft 15 kts 224°
2026-05-07 13:18 38.76642 -9.13579 349 ft 14 kts 259°
2026-05-07 13:18 38.76617 -9.13740 347 ft 20 kts 256°
2026-05-07 13:19 38.76584 -9.13923 345 ft 21 kts 257°
2026-05-07 13:19 38.76510 -9.14085 343 ft 21 kts 240°
2026-05-07 13:19 38.76522 -9.14253 341 ft 10 kts 294°
2026-05-07 13:19 38.76532 -9.14287 341 ft 0 kts 292°
2026-05-07 13:20 38.76533 -9.14287 341 ft 0 kts 292°
2026-05-07 13:20 38.76541 -9.14313 340 ft 5 kts 292°
2026-05-07 13:20 38.76565 -9.14390 340 ft 8 kts 293°
2026-05-07 13:21 38.76608 -9.14411 340 ft 6 kts
2026-05-07 13:21 38.76644 -9.14392 341 ft 0 kts 27°
2026-05-07 13:22 38.76733 -9.14341 339 ft 43 kts 24°
2026-05-07 13:22 38.77254 -9.14066 354 ft 115 kts 22°
2026-05-07 13:23 38.78189 -9.13561 398 ft 169 kts 22°
2026-05-07 13:23 38.79292 -9.12954 984 ft 176 kts 20°
2026-05-07 13:23 38.80372 -9.12293 1860 ft 171 kts 26°
2026-05-07 13:23 38.81406 -9.11564 2674 ft 171 kts 28°
2026-05-07 13:24 38.82414 -9.10828 3439 ft 171 kts 29°
2026-05-07 13:24 38.83447 -9.10066 4142 ft 174 kts 30°
2026-05-07 13:24 38.84513 -9.09277 4786 ft 178 kts 31°
2026-05-07 13:24 38.85636 -9.08443 5053 ft 196 kts 31°
2026-05-07 13:25 38.86900 -9.07504 5373 ft 218 kts 31°
2026-05-07 13:25 38.88160 -9.06308 5816 ft 234 kts 53°
2026-05-07 13:25 38.88818 -9.04364 6293 ft 248 kts 84°
2026-05-07 13:25 38.88584 -9.02112 6771 ft 264 kts 114°
2026-05-07 13:26 38.87486 -9.00146 7366 ft 275 kts 132°
2026-05-07 13:26 38.86291 -8.98202 8239 ft 276 kts 135°
2026-05-07 13:26 38.84685 -8.96886 9007 ft 279 kts 162°
2026-05-07 13:26 38.82745 -8.96636 9788 ft 284 kts 186°
2026-05-07 13:27 38.80835 -8.97490 10478 ft 293 kts 206°
2026-05-07 13:27 38.78909 -8.98591 10921 ft 310 kts 203°
2026-05-07 13:27 38.76835 -8.99718 11305 ft 330 kts 202°
2026-05-07 13:27 38.74652 -9.00892 11669 ft 349 kts 202°
2026-05-07 13:28 38.72311 -9.02147 12119 ft 364 kts 202°
2026-05-07 13:28 38.69951 -9.03411 12887 ft 369 kts 203°
2026-05-07 13:28 38.67528 -9.04707 13591 ft 374 kts 203°
2026-05-07 13:28 38.65084 -9.06013 14293 ft 379 kts 203°
2026-05-07 13:29 38.62631 -9.07323 15030 ft 382 kts 204°
2026-05-07 13:29 38.60156 -9.08646 15725 ft 386 kts 204°
2026-05-07 13:29 38.57658 -9.09979 16395 ft 389 kts 205°
2026-05-07 13:29 38.55093 -9.11346 17073 ft 392 kts 205°
2026-05-07 13:30 38.52552 -9.12700 17694 ft 396 kts 205°
2026-05-07 13:30 38.49988 -9.14066 18327 ft 399 kts 205°
2026-05-07 13:30 38.47398 -9.15445 18920 ft 402 kts 205°
2026-05-07 13:30 38.44762 -9.16845 19547 ft 405 kts 206°
2026-05-07 13:31 38.42175 -9.18306 20091 ft 406 kts 211°
2026-05-07 13:31 38.39871 -9.20413 20649 ft 406 kts 221°
2026-05-07 13:31 38.37602 -9.22633 21214 ft 408 kts 220°
2026-05-07 13:31 38.35291 -9.24887 21695 ft 412 kts 220°
2026-05-07 13:32 38.33018 -9.27105 22214 ft 414 kts 220°
2026-05-07 13:32 38.30681 -9.29380 22712 ft 417 kts 220°
2026-05-07 13:32 38.28360 -9.31635 23188 ft 419 kts 220°
2026-05-07 13:32 38.26014 -9.33914 23699 ft 420 kts 220°
2026-05-07 13:33 38.23660 -9.36200 24169 ft 423 kts 220°
2026-05-07 13:33 38.21314 -9.38476 24692 ft 423 kts 221°
2026-05-07 13:33 38.18955 -9.40764 25114 ft 427 kts 221°
2026-05-07 13:33 38.16546 -9.43098 25623 ft 428 kts 221°
2026-05-07 13:34 38.14165 -9.45403 26062 ft 430 kts 221°
2026-05-07 13:34 38.09312 -9.50095 26936 ft 435 kts 221°
2026-05-07 13:34 38.06908 -9.52417 27332 ft 438 kts 221°
2026-05-07 13:35 38.04451 -9.54787 27785 ft 439 kts 221°
2026-05-07 13:35 38.02006 -9.57143 28246 ft 441 kts 221°
2026-05-07 13:35 37.99539 -9.59544 28630 ft 442 kts 223°
2026-05-07 13:35 37.97184 -9.62077 29008 ft 443 kts 224°
2026-05-07 13:36 37.94801 -9.64625 29424 ft 444 kts 224°
2026-05-07 13:36 37.92385 -9.67205 29906 ft 443 kts 224°
2026-05-07 13:36 37.90017 -9.69729 30525 ft 440 kts 224°
2026-05-07 13:36 37.87664 -9.72234 31169 ft 436 kts 224°
2026-05-07 13:37 37.85324 -9.74724 31814 ft 432 kts 224°
2026-05-07 13:37 37.83012 -9.77182 32298 ft 431 kts 224°
2026-05-07 13:37 37.80691 -9.79647 32932 ft 426 kts 225°
2026-05-07 13:37 37.78414 -9.82064 33518 ft 423 kts 225°
2026-05-07 13:38 37.76141 -9.84475 34010 ft 421 kts 225°
2026-05-07 13:38 37.73902 -9.86847 34530 ft 418 kts 225°
2026-05-07 13:38 37.71644 -9.89239 34996 ft 415 kts 225°
2026-05-07 13:38 37.69423 -9.91589 35403 ft 413 kts 225°
2026-05-07 13:39 37.67197 -9.93941 35820 ft 411 kts 225°
2026-05-07 13:39 37.65006 -9.96256 36098 ft 411 kts 225°
2026-05-07 13:39 37.62806 -9.98599 36447 ft 408 kts 227°
2026-05-07 13:39 37.60927 -10.01321 36773 ft 402 kts 236°
2026-05-07 13:40 37.59196 -10.04066 37175 ft 401 kts 235°
2026-05-07 13:40 37.57433 -10.06848 37577 ft 400 kts 235°
2026-05-07 13:40 37.55690 -10.09592 37863 ft 400 kts 235°
2026-05-07 13:40 37.53940 -10.12344 38196 ft 399 kts 235°
2026-05-07 13:41 37.52209 -10.15066 38508 ft 398 kts 235°
2026-05-07 13:41 37.50471 -10.17793 38862 ft 397 kts 235°
2026-05-07 13:41 37.48719 -10.20540 38946 ft 400 kts 235°
2026-05-07 13:42 37.45196 -10.26063 38963 ft 406 kts 235°
2026-05-07 13:42 37.41622 -10.31648 38941 ft 406 kts 235°
2026-05-07 13:43 37.38081 -10.37179 38940 ft 402 kts 235°
2026-05-07 13:43 37.34537 -10.42703 38945 ft 403 kts 235°
2026-05-07 13:44 37.30987 -10.48226 38941 ft 402 kts 235°
2026-05-07 13:44 37.27454 -10.53713 38940 ft 403 kts 234°
2026-05-07 13:45 37.23912 -10.59208 38937 ft 402 kts 235°
2026-05-07 13:45 37.20364 -10.64701 38937 ft 399 kts 234°
2026-05-07 13:46 37.16824 -10.70173 38948 ft 401 kts 234°
2026-05-07 13:46 37.13312 -10.75594 38959 ft 400 kts 234°
2026-05-07 13:46 37.11542 -10.78321 39193 ft 397 kts 234°
2026-05-07 13:47 37.09790 -10.81019 39764 ft 390 kts 234°
2026-05-07 13:47 37.08058 -10.83682 39954 ft 390 kts 234°
2026-05-07 13:47 37.06342 -10.86321 40221 ft 387 kts 234°
2026-05-07 13:47 37.04635 -10.88944 40359 ft 386 kts 234°
2026-05-07 13:48 37.02923 -10.91575 40456 ft 386 kts 234°
2026-05-07 13:48 37.01215 -10.94193 40562 ft 387 kts 234°
2026-05-07 13:48 36.99490 -10.96841 40668 ft 390 kts 234°
2026-05-07 13:49 36.96042 -11.02116 40857 ft 390 kts 234°
2026-05-07 13:49 36.92556 -11.07446 40930 ft 393 kts 234°
2026-05-07 13:50 36.89057 -11.12788 40947 ft 401 kts 234°
2026-05-07 13:50 36.85473 -11.18243 41180 ft 401 kts 233°
2026-05-07 13:50 36.83701 -11.20942 41503 ft 394 kts 234°
2026-05-07 13:51 36.81966 -11.23577 41779 ft 388 kts 234°
2026-05-07 13:51 36.80242 -11.26205 41341 ft 400 kts 233°
2026-05-07 13:51 36.78431 -11.28948 40842 ft 401 kts 233°
2026-05-07 13:51 36.76667 -11.31624 41054 ft 396 kts 233°
2026-05-07 13:52 36.74900 -11.34301 40908 ft 402 kts 233°
2026-05-07 13:52 36.71309 -11.39735 40954 ft 402 kts 234°
2026-05-07 13:53 36.67724 -11.45159 40952 ft 403 kts 234°
2026-05-07 13:53 36.64125 -11.50589 40947 ft 404 kts 233°
2026-05-07 13:54 36.60524 -11.56011 40946 ft 405 kts 233°
2026-05-07 13:54 36.56908 -11.61454 40942 ft 405 kts 233°
2026-05-07 13:55 36.53303 -11.66864 40952 ft 405 kts 232°
2026-05-07 13:55 36.49676 -11.72301 40959 ft 406 kts 233°
2026-05-07 13:56 36.46041 -11.77747 40958 ft 406 kts 232°
2026-05-07 13:56 36.42377 -11.83216 40959 ft 407 kts 233°
2026-05-07 13:57 36.38738 -11.88650 40961 ft 407 kts 233°
2026-05-07 13:57 36.35067 -11.94117 40960 ft 407 kts 233°
2026-05-07 13:58 36.31422 -11.99538 40959 ft 408 kts 233°
2026-05-07 13:58 36.27755 -12.04982 40959 ft 408 kts 232°
2026-05-07 13:59 36.24079 -12.10426 40959 ft 407 kts 232°
2026-05-07 13:59 36.20410 -12.15861 40957 ft 407 kts 232°
2026-05-07 14:00 36.16744 -12.21279 40953 ft 406 kts 232°
2026-05-07 14:00 36.13097 -12.26661 40947 ft 406 kts 232°
2026-05-07 14:01 35.99769 -12.46256 40913 ft 405 kts 232°
2026-05-07 14:01 35.77712 -12.78421 40969 ft 404 kts 232°
2026-05-07 14:02 35.55745 -13.10146 40938 ft 404 kts 231°
2026-05-07 14:02 35.33662 -13.41765 40909 ft 404 kts 231°
2026-05-07 14:03 35.11525 -13.73192 40925 ft 403 kts 231°
2026-05-07 14:03 34.89188 -14.04581 40927 ft 403 kts 231°
2026-05-07 14:04 34.66842 -14.35714 40920 ft 403 kts 231°
2026-05-07 14:04 34.44459 -14.66624 40922 ft 404 kts 230°
2026-05-07 14:05 34.21171 -14.96257 40962 ft 404 kts 231°
2026-05-07 14:05 34.14990 -15.04425 40966 ft 405 kts 228°
2026-05-07 14:05 34.13004 -15.06888 40573 ft 416 kts 228°
2026-05-07 14:06 34.10949 -15.09451 40016 ft 420 kts 228°
2026-05-07 14:06 34.08931 -15.11974 39586 ft 413 kts 228°
2026-05-07 14:06 34.06956 -15.14451 39385 ft 397 kts 228°
2026-05-07 14:06 34.05036 -15.16857 38500 ft 396 kts 228°
2026-05-07 14:07 34.03130 -15.19246 37372 ft 397 kts 228°
2026-05-07 14:07 34.01160 -15.21711 36747 ft 406 kts 227°
2026-05-07 14:07 33.99179 -15.24188 36064 ft 412 kts 227°
2026-05-07 14:07 33.97185 -15.26680 35421 ft 405 kts 227°
2026-05-07 14:08 33.95225 -15.29127 34845 ft 402 kts 227°
2026-05-07 14:08 33.93269 -15.31567 34207 ft 401 kts 227°
2026-05-07 14:08 33.91332 -15.33983 33552 ft 399 kts 227°
2026-05-07 14:08 33.89367 -15.36433 32797 ft 399 kts 227°
2026-05-07 14:09 33.87424 -15.38853 32068 ft 399 kts 227°
2026-05-07 14:09 33.85483 -15.41265 31291 ft 400 kts 227°
2026-05-07 14:09 33.83526 -15.43699 30665 ft 398 kts 227°
2026-05-07 14:09 33.81600 -15.46095 30079 ft 395 kts 227°
2026-05-07 14:10 33.79681 -15.48478 29532 ft 391 kts 226°
2026-05-07 14:10 33.77793 -15.50819 28957 ft 388 kts 227°
2026-05-07 14:10 33.75900 -15.53167 28354 ft 385 kts 227°
2026-05-07 14:10 33.74027 -15.55489 27724 ft 383 kts 226°
2026-05-07 14:11 33.72156 -15.57805 27148 ft 380 kts 227°
2026-05-07 14:11 33.70327 -15.60072 26592 ft 377 kts 227°
2026-05-07 14:11 33.68483 -15.62350 26102 ft 371 kts 227°
2026-05-07 14:11 33.66696 -15.64559 25617 ft 366 kts 226°
2026-05-07 14:12 33.64894 -15.66786 25159 ft 361 kts 226°
2026-05-07 14:12 33.63150 -15.68938 24673 ft 357 kts 226°
2026-05-07 14:12 33.61423 -15.71068 24170 ft 353 kts 226°
2026-05-07 14:12 33.59704 -15.73190 23639 ft 351 kts 226°
2026-05-07 14:13 33.57996 -15.75294 23099 ft 348 kts 226°
2026-05-07 14:13 33.56290 -15.77394 22563 ft 346 kts 226°
2026-05-07 14:13 33.54572 -15.79449 22038 ft 343 kts 225°
2026-05-07 14:13 33.52858 -15.81458 21531 ft 340 kts 225°
2026-05-07 14:14 33.51168 -15.83438 21031 ft 337 kts 226°
2026-05-07 14:14 33.49489 -15.85409 20545 ft 333 kts 226°
2026-05-07 14:14 33.47819 -15.87365 20065 ft 329 kts 226°
2026-05-07 14:14 33.46184 -15.89279 19596 ft 325 kts 226°
2026-05-07 14:15 33.44556 -15.91185 19132 ft 321 kts 226°
2026-05-07 14:15 33.42969 -15.93041 18678 ft 318 kts 227°
2026-05-07 14:15 33.41385 -15.94895 18221 ft 315 kts 227°
2026-05-07 14:15 33.39812 -15.96734 17779 ft 314 kts 227°
2026-05-07 14:16 33.38244 -15.98567 17328 ft 311 kts 227°
2026-05-07 14:16 33.36674 -16.00400 16877 ft 311 kts 227°
2026-05-07 14:16 33.35135 -16.02195 16429 ft 309 kts 227°
2026-05-07 14:16 33.33591 -16.03996 15975 ft 306 kts 227°
2026-05-07 14:17 33.32052 -16.05792 15526 ft 306 kts 227°
2026-05-07 14:17 33.30515 -16.07581 15067 ft 305 kts 227°
2026-05-07 14:17 33.28974 -16.09376 14601 ft 304 kts 227°
2026-05-07 14:17 33.27444 -16.11157 14138 ft 302 kts 227°
2026-05-07 14:18 33.25938 -16.12909 13669 ft 302 kts 227°
2026-05-07 14:18 33.24416 -16.14679 13192 ft 300 kts 227°
2026-05-07 14:18 33.22906 -16.16433 12722 ft 301 kts 227°
2026-05-07 14:18 33.21402 -16.18179 12269 ft 300 kts 227°
2026-05-07 14:19 33.19899 -16.19925 11806 ft 299 kts 227°
2026-05-07 14:19 33.18382 -16.21684 11398 ft 299 kts 227°
2026-05-07 14:19 33.16864 -16.23444 10997 ft 300 kts 227°
2026-05-07 14:19 33.15355 -16.25194 10612 ft 298 kts 227°
2026-05-07 14:20 33.13855 -16.26932 10282 ft 297 kts 227°
2026-05-07 14:20 33.12361 -16.28663 10250 ft 294 kts 227°
2026-05-07 14:20 33.10909 -16.30341 10138 ft 282 kts 227°
2026-05-07 14:20 33.09512 -16.31957 10041 ft 271 kts 227°
2026-05-07 14:21 33.08170 -16.33507 9936 ft 261 kts 227°
2026-05-07 14:21 33.06859 -16.35024 9616 ft 260 kts 227°
2026-05-07 14:21 33.05548 -16.36541 9337 ft 258 kts 227°
2026-05-07 14:21 33.04268 -16.38021 9066 ft 256 kts 227°
2026-05-07 14:22 33.02563 -16.39990 8715 ft 253 kts 227°
2026-05-07 14:22 33.01718 -16.40965 8543 ft 251 kts 227°
2026-05-07 14:22 33.00444 -16.42437 8284 ft 249 kts 227°
2026-05-07 14:22 32.99204 -16.43866 8038 ft 247 kts 227°
2026-05-07 14:23 32.97971 -16.45285 7793 ft 245 kts 227°
2026-05-07 14:23 32.96732 -16.46714 7557 ft 243 kts 226°
2026-05-07 14:23 32.95506 -16.48125 7307 ft 241 kts 227°
2026-05-07 14:23 32.94298 -16.49517 7077 ft 240 kts 226°
2026-05-07 14:24 32.93074 -16.50925 6814 ft 239 kts 226°
2026-05-07 14:24 32.91857 -16.52247 6582 ft 238 kts 224°
2026-05-07 14:24 32.90614 -16.53571 6343 ft 237 kts 224°
2026-05-07 14:24 32.89362 -16.54910 6095 ft 237 kts 224°
2026-05-07 14:25 32.88131 -16.56224 5852 ft 236 kts 224°
2026-05-07 14:25 32.86919 -16.57517 5704 ft 230 kts 224°
2026-05-07 14:25 32.85725 -16.58790 5632 ft 224 kts 224°
2026-05-07 14:25 32.84571 -16.60022 5455 ft 226 kts 224°
2026-05-07 14:26 32.83390 -16.61281 5190 ft 227 kts 223°
2026-05-07 14:26 32.82179 -16.62524 4925 ft 228 kts 218°
2026-05-07 14:26 32.80800 -16.63484 4657 ft 230 kts 206°
2026-05-07 14:26 32.79282 -16.64125 4391 ft 232 kts 199°
2026-05-07 14:27 32.77722 -16.64726 4094 ft 234 kts 200°
2026-05-07 14:27 32.76188 -16.65341 3976 ft 236 kts 200°
2026-05-07 14:27 32.74604 -16.65979 4004 ft 233 kts 200°
2026-05-07 14:27 32.73042 -16.66613 3983 ft 234 kts 200°
2026-05-07 14:28 32.71488 -16.67242 3990 ft 235 kts 200°
2026-05-07 14:28 32.69904 -16.67884 3785 ft 239 kts 200°
2026-05-07 14:28 32.68411 -16.68489 3610 ft 209 kts 200°
2026-05-07 14:28 32.67103 -16.69016 3166 ft 189 kts 201°
2026-05-07 14:29 32.65914 -16.69498 2737 ft 172 kts 201°
2026-05-07 14:29 32.64871 -16.69918 2568 ft 142 kts 201°
2026-05-07 14:29 32.63937 -16.70299 2124 ft 143 kts 201°
2026-05-07 14:29 32.63067 -16.70830 1973 ft 138 kts 216°
2026-05-07 14:30 32.62321 -16.71562 2002 ft 139 kts 226°
2026-05-07 14:30 32.61704 -16.72451 1979 ft 138 kts 237°
2026-05-07 14:30 32.61248 -16.73448 1986 ft 137 kts 248°
2026-05-07 14:30 32.60959 -16.74536 1980 ft 137 kts 258°
2026-05-07 14:31 32.60851 -16.75670 1981 ft 137 kts 269°
2026-05-07 14:31 32.60917 -16.76790 1980 ft 137 kts 279°
2026-05-07 14:31 32.61172 -16.77903 1891 ft 138 kts 289°
2026-05-07 14:31 32.61647 -16.78879 1705 ft 136 kts 309°
2026-05-07 14:32 32.62353 -16.79646 1540 ft 138 kts 324°
2026-05-07 14:32 32.63200 -16.80167 1373 ft 136 kts 340°
2026-05-07 14:32 32.64154 -16.80348 1204 ft 138 kts 358°
2026-05-07 14:32 32.65115 -16.80336 993 ft 137 kts
2026-05-07 14:33 32.66070 -16.80210 845 ft 137 kts
2026-05-07 14:33 32.67018 -16.80004 691 ft 138 kts 17°
2026-05-07 14:33 32.67906 -16.79587 525 ft 138 kts 29°
2026-05-07 14:33 32.68603 -16.78827 295 ft 135 kts 47°
2026-05-07 14:34 32.69274 -16.78050 189 ft 131 kts 45°
2026-05-07 14:34 32.69737 -16.77507 223 ft 48 kts 45°
2026-05-07 14:34 32.69918 -16.77290 221 ft 14 kts 45°
2026-05-07 14:34 32.69970 -16.77207 218 ft 8 kts 99°
2026-05-07 14:35 32.69887 -16.77176 210 ft 16 kts 176°
2026-05-07 14:35 32.69781 -16.77248 203 ft 19 kts 227°
2026-05-07 14:35 32.69687 -16.77366 202 ft 19 kts 226°
2026-05-07 14:35 32.69619 -16.77449 201 ft 4 kts 226°
2026-05-07 14:36 32.69586 -16.77441 198 ft 8 kts 140°
2026-05-07 14:36 32.69570 -16.77423 193 ft 5 kts 138°
2026-05-07 14:36 32.69545 -16.77397 186 ft 0 kts 138°